FW9412 Weather Reports


Display with metric or nautical units.
time (UTC)temp
F
wind
direction
speed
MPH
gust
MPH
rain 1hr
in
rain 24hr
in
rain mn
in
humidity
%
barometer
mb
20260903050218 67 166 0.0 0.0 0.00 0.00 0.00 98 1013.2
20260903045713 67 165 0.0 0.0 0.00 0.00 0.00 99 1013.1
20260903045209 67 187 1.0 2.0 0.00 0.00 0.00 99 1013.2
20260903044705 66 173 1.0 1.0 0.00 0.00 0.00 99 1013.0
20260903044201 66 167 0.0 0.0 0.00 0.00 0.00 99 1013.1
20260903043658 66 168 0.0 0.0 0.00 0.00 0.00 99 1012.9
20260903043157 66 162 0.0 1.0 0.00 0.00 0.00 99 1012.7
20260903042656 66 173 1.0 1.0 0.00 0.00 0.00 99 1012.7
20260903042151 66 182 2.0 3.0 0.00 0.00 0.00 99 1012.9
20260903041648 66 177 1.0 1.0 0.00 0.00 0.00 99 1013.2
20260903041143 66 183 1.0 2.0 0.00 0.00 0.00 99 1013.2
20260903040642 66 191 0.0 1.0 0.00 0.00 0.00 99 1013.3
20260903040138 66 199 0.0 2.0 0.00 0.00 0.00 99 1013.3
20260903035634 66 197 1.0 2.0 0.00 1.46 1.46 99 1013.4
20260903035130 66 184 3.0 3.0 0.00 1.46 1.46 99 1013.3
20260903034624 66 177 0.0 1.0 0.00 1.46 1.46 99 1013.3
20260903034119 66 207 2.0 2.0 0.00 1.46 1.46 99 1013.2
20260903033615 66 197 1.0 2.0 0.00 1.46 1.46 99 1013.2
20260903033109 66 186 3.0 3.0 0.00 1.46 1.46 99 1013.4
20260903032604 66 198 2.0 3.0 0.00 1.46 1.46 99 1013.5
20260903032100 67 201 3.0 5.0 0.00 1.46 1.46 99 1013.6
20260903031554 67 187 3.0 3.0 0.00 1.46 1.46 99 1013.5
20260903031049 67 193 1.0 2.0 0.00 1.46 1.46 99 1013.3
20260903030544 67 200 2.0 2.0 0.00 1.46 1.46 99 1013.1
20260903030041 67 171 1.0 1.0 0.07 1.46 1.46 99 1012.7
20260903025536 67 168 0.0 1.0 0.07 1.46 1.46 99 1012.6
20260903025032 67 163 1.0 1.0 0.00 1.45 1.45 99 1012.4
20260903024531 66 194 1.0 2.0 0.00 1.45 1.45 99 1012.7
20260903024025 66 185 3.0 3.0 0.00 1.45 1.45 99 1013.0
20260903023521 66 170 0.0 1.0 0.05 1.45 1.45 99 1012.9
20260903023016 66 154 0.0 0.0 0.05 1.45 1.45 98 1013.1
20260903022515 66 140 0.0 0.0 0.00 1.44 1.44 98 1013.2
20260903022014 66 156 0.0 1.0 0.07 1.44 1.44 98 1013.6
20260903021509 66 157 0.0 0.0 0.07 1.44 1.44 98 1013.7
20260903021004 67 154 0.0 0.0 0.00 1.43 1.43 98 1013.6
20260903020500 67 197 1.0 2.0 0.05 1.43 1.43 98 1013.4
20260903015959 67 137 0.0 0.0 0.12 1.43 1.43 98 1013.3
20260903015455 67 170 0.0 1.0 0.12 1.42 1.42 98 1013.4
20260903014950 67 160 0.0 0.0 0.05 1.41 1.41 98 1013.9
20260903014450 68 170 0.0 1.0 0.07 1.40 1.40 98 1014.6
20260903013945 68 162 0.0 1.0 0.07 1.40 1.40 98 1014.5
20260903013445 68 156 0.0 0.0 0.05 1.39 1.39 98 1014.3
20260903012944 68 157 1.0 2.0 0.05 1.39 1.39 97 1014.4
20260903012443 69 177 1.0 2.0 0.07 1.38 1.38 97 1014.5
20260903011942 70 183 0.0 1.0 0.07 1.38 1.38 97 1014.9
20260903011437 71 178 0.0 1.0 0.12 1.37 1.37 97 1014.6
20260903010932 71 145 0.0 0.0 0.24 1.37 1.37 97 1014.5
20260903010427 71 147 0.0 0.0 0.24 1.35 1.35 97 1014.3
20260903005925 71 145 0.0 0.0 0.12 1.33 1.33 96 1014.7
20260903005421 71 144 0.0 0.0 0.00 1.31 1.31 96 1015.1
20260903004918 71 152 0.0 0.0 0.00 1.31 1.31 96 1015.0
20260903004412 71 148 0.0 0.0 0.00 1.31 1.31 96 1014.8
20260903003907 71 115 0.0 1.0 0.00 1.31 1.31 96 1014.8
20260903003402 71 140 0.0 1.0 0.00 1.31 1.31 96 1014.2
20260903002902 71 149 0.0 0.0 0.00 1.31 1.31 96 1013.9
20260903002356 71 147 0.0 0.0 0.00 1.31 1.31 96 1013.4
20260903001851 71 146 0.0 0.0 0.00 1.31 1.31 96 1013.7
20260903001346 71 145 0.0 0.0 0.00 1.31 1.31 96 1013.6
20260903000846 71 140 0.0 1.0 0.00 1.31 1.31 96 1013.3
20260903000341 72 150 0.0 0.0 0.00 1.31 1.31 96 1013.7
20260902235839 72 153 0.0 1.0 0.00 1.31 1.31 96 1013.7
20260902235334 72 152 0.0 1.0 0.00 1.31 1.31 96 1013.9
20260902234834 72 154 0.0 0.0 0.00 1.31 1.31 96 1013.9
20260902234329 72 152 0.0 0.0 0.00 1.31 1.31 95 1013.4
20260902233828 72 140 0.0 0.0 0.00 1.31 1.31 95 1013.4
20260902233327 72 137 0.0 0.0 0.00 1.31 1.31 95 1013.2
20260902232826 72 148 0.0 1.0 0.00 1.31 1.31 95 1013.3
20260902232321 72 177 0.0 0.0 0.00 1.31 1.31 95 1013.5
20260902231815 72 158 0.0 0.0 0.00 1.31 1.31 95 1013.8
20260902231310 73 144 0.0 0.0 0.00 1.31 1.31 95 1013.5
20260902230805 73 176 1.0 1.0 0.00 1.31 1.31 94 1013.9
20260902230304 73 155 0.0 1.0 0.00 1.31 1.31 95 1013.7
20260902225759 73 163 1.0 1.0 0.00 1.31 1.31 95 1013.5
20260902225254 73 156 0.0 0.0 0.00 1.31 1.31 94 1013.6
20260902224752 73 154 1.0 1.0 0.00 1.31 1.31 94 1013.2
20260902224248 73 148 0.0 1.0 0.00 1.31 1.31 94 1013.2
20260902223744 74 151 1.0 1.0 0.00 1.31 1.31 94 1012.9
20260902223243 74 161 0.0 0.0 0.00 1.31 1.31 93 1013.1
20260902222742 74 137 0.0 0.0 0.00 1.31 1.31 93 1013.0
20260902222236 74 147 0.0 0.0 0.00 1.31 1.31 93 1013.2
20260902221731 75 153 0.0 0.0 0.00 1.31 1.31 93 1013.2
20260902221230 75 144 0.0 1.0 0.00 1.31 1.31 93 1013.1
20260902220726 75 144 0.0 0.0 0.00 1.31 1.31 93 1013.2
20260902220225 75 138 0.0 0.0 0.00 1.31 1.31 93 1013.2
20260902215721 75 147 0.0 1.0 0.00 1.31 1.31 93 1013.5
20260902215217 76 165 1.0 1.0 0.00 1.31 1.31 92 1013.7
20260902214712 76 145 0.0 0.0 0.00 1.31 1.31 92 1014.2
20260902214211 76 146 0.0 0.0 0.00 1.31 1.31 91 1014.5
20260902213706 77 146 0.0 0.0 0.00 1.31 1.31 91 1014.7
20260902213201 77 147 0.0 0.0 0.00 1.31 1.31 91 1014.9
20260902212656 77 152 0.0 0.0 0.00 1.31 1.31 91 1014.9
20260902212153 77 146 0.0 0.0 0.00 1.31 1.31 91 1014.8
20260902211648 77 144 0.0 0.0 0.00 1.31 1.31 90 1015.1
20260902211148 77 149 0.0 0.0 0.00 1.31 1.31 90 1015.5
20260902210648 77 153 0.0 0.0 0.00 1.31 1.31 90 1015.3
20260902210143 77 153 0.0 0.0 0.00 1.31 1.31 90 1015.4
20260902205642 77 148 0.0 0.0 0.00 1.31 1.31 90 1015.1
20260902205137 78 146 0.0 0.0 0.00 1.31 1.31 89 1015.2
20260902204632 78 150 0.0 0.0 0.00 1.31 1.31 88 1015.2
20260902204127 78 153 0.0 0.0 0.00 1.31 1.31 88 1015.2
20260902203622 78 151 0.0 0.0 0.00 1.31 1.31 88 1015.3
20260902203122 78 146 0.0 0.0 0.00 1.31 1.31 88 1015.1
20260902202617 78 150 0.0 1.0 0.00 1.31 1.31 88 1015.2
20260902202114 78 151 0.0 0.0 0.00 1.31 1.31 88 1015.4
20260902201610 78 143 0.0 0.0 0.00 1.31 1.31 88 1015.0
20260902201109 78 147 0.0 0.0 0.00 1.31 1.31 87 1014.8
20260902200604 78 143 0.0 0.0 0.00 1.31 1.31 88 1015.1
20260902200100 78 154 0.0 0.0 0.00 1.31 1.31 88 1014.8
20260902195555 78 147 0.0 0.0 0.00 1.31 1.31 87 1014.8
20260902195054 78 137 0.0 0.0 0.00 1.31 1.31 87 1014.5
20260902194548 77 161 0.0 1.0 0.00 1.31 1.31 87 1014.7
20260902194044 77 154 0.0 0.0 0.00 1.31 1.31 88 1015.0
20260902193540 78 160 0.0 0.0 0.00 1.31 1.31 88 1014.8
20260902193039 78 153 0.0 0.0 0.00 1.31 1.31 87 1015.0
20260902192537 78 151 0.0 0.0 0.00 1.31 1.31 87 1015.0
20260902192036 78 152 0.0 0.0 0.00 1.31 1.31 86 1015.1
20260902191532 79 150 0.0 1.0 0.00 1.31 1.31 85 1015.0
20260902191026 79 155 0.0 0.0 0.00 1.31 1.31 85 1014.9
20260902190522 79 161 0.0 1.0 0.00 1.31 1.31 82 1014.9
20260902190018 79 167 0.0 0.0 0.00 1.31 1.31 83 1015.2
20260902185513 79 175 1.0 2.0 0.00 1.31 1.31 85 1015.1
20260902185009 79 163 0.0 0.0 0.00 1.31 1.31 84 1015.5
20260902184504 78 168 1.0 1.0 0.00 1.31 1.31 86 1015.4
20260902183959 78 155 0.0 0.0 0.00 1.31 1.31 87 1015.7
20260902183455 77 142 0.0 1.0 0.00 1.31 1.31 86 1015.5
20260902182951 78 170 0.0 1.0 0.00 1.31 1.31 86 1015.6
20260902182447 78 154 0.0 0.0 0.00 1.31 1.31 83 1015.7
20260902181943 77 107 0.0 1.0 0.00 1.31 1.31 84 1015.9
20260902181438 77 141 3.0 3.0 0.00 1.31 1.31 85 1015.8
20260902180933 77 153 0.0 0.0 0.00 1.31 1.31 86 1015.7
20260902180428 76 171 0.0 0.0 0.00 1.31 1.31 87 1015.7
20260902175924 76 179 2.0 3.0 0.00 1.31 1.31 86 1015.6
20260902175419 75 191 2.0 2.0 0.00 1.31 1.31 87 1015.5
20260902174914 75 151 1.0 1.0 0.00 1.31 1.31 91 1015.7
20260902174411 73 160 0.0 1.0 0.00 1.31 1.31 94 1015.8
20260902173906 72 148 0.0 1.0 0.00 1.31 1.31 97 1016.1
20260902173406 72 154 0.0 0.0 0.00 1.31 1.31 98 1016.0
20260902172901 72 162 1.0 2.0 0.00 1.31 1.31 98 1015.9
20260902172400 71 155 0.0 0.0 0.00 1.31 1.31 99 1015.7
20260902171855 71 159 0.0 0.0 0.00 1.31 1.31 99 1015.8
20260902171351 71 141 0.0 0.0 0.00 1.31 1.31 99 1015.8
20260902170847 71 147 0.0 0.0 0.00 1.31 1.31 99 1015.6
20260902170342 71 122 1.0 2.0 0.00 1.31 1.31 99 1015.8
20260902165837 71 167 1.0 2.0 0.00 1.31 1.31 99 1015.9
20260902165336 71 119 1.0 1.0 0.00 1.31 1.31 99 1016.2
20260902164831 71 151 0.0 0.0 0.00 1.31 1.31 99 1016.0
20260902164326 71 171 1.0 1.0 0.00 1.31 1.31 99 1015.7
20260902163825 71 152 1.0 2.0 0.00 1.31 1.31 99 1015.7
20260902163325 71 158 0.0 0.0 0.00 1.31 1.31 99 1015.9
20260902162824 70 157 0.0 0.0 0.00 1.31 1.31 99 1015.9
20260902162319 69 149 0.0 0.0 0.00 1.31 1.31 99 1016.3
20260902161814 69 150 0.0 0.0 0.00 1.31 1.31 99 1016.4
20260902161309 69 150 0.0 0.0 0.00 1.31 1.31 99 1016.4
20260902160805 68 143 1.0 1.0 0.00 1.31 1.31 99 1016.5
20260902160301 68 146 0.0 1.0 0.00 1.31 1.31 99 1016.6
20260902155758 68 142 1.0 1.0 0.00 1.31 1.31 99 1016.7
20260902155257 68 154 1.0 2.0 0.00 1.31 1.31 99 1016.6
20260902154752 67 146 1.0 1.0 0.00 1.31 1.31 99 1016.8
20260902154248 67 151 0.0 1.0 0.00 1.31 1.31 99 1016.7
20260902153747 66 147 0.0 0.0 0.07 1.31 1.31 99 1016.9
20260902153242 66 154 0.0 0.0 0.07 1.31 1.31 99 1016.9
20260902152737 66 146 0.0 1.0 0.05 1.30 1.30 99 1017.2
20260902152233 66 155 1.0 2.0 0.17 1.30 1.30 99 1017.6
20260902151728 66 148 0.0 0.0 0.24 1.29 1.29 99 1017.9
20260902151228 66 143 0.0 0.0 0.42 1.27 1.27 99 1018.9
20260902150723 66 150 0.0 0.0 0.42 1.25 1.25 99 1018.9
20260902150219 66 148 0.0 0.0 0.31 1.20 1.20 99 1019.0
20260902145718 66 162 0.0 0.0 0.42 1.18 1.18 99 1019.3
20260902145213 66 152 0.0 0.0 0.66 1.15 1.15 99 1018.8
20260902144709 67 138 0.0 0.0 2.53 1.10 1.10 99 1019.1
20260902144205 67 144 0.0 0.0 3.35 1.03 1.03 99 1019.1
20260902143700 68 132 0.0 0.0 1.79 0.69 0.69 99 1018.9
20260902143155 68 134 2.0 2.0 0.97 0.46 0.46 99 1018.4
20260902142651 68 145 0.0 0.0 0.61 0.38 0.38 99 1017.4
20260902142146 68 156 0.0 0.0 0.17 0.30 0.30 99 1017.3
20260902141645 68 148 0.0 0.0 0.12 0.28 0.28 99 1017.2
20260902141141 68 149 0.0 0.0 0.24 0.27 0.27 99 1017.1
20260902140637 68 148 0.0 0.0 0.31 0.26 0.26 99 1016.9
20260902140132 68 148 0.0 0.0 0.26 0.23 0.23 99 1016.7
20260902135631 68 109 1.0 2.0 0.17 0.21 0.21 99 1017.4
20260902135127 68 151 0.0 0.0 0.12 0.19 0.19 99 1017.0
20260902134622 68 142 0.0 0.0 0.24 0.18 0.18 99 1017.1
20260902134121 68 144 0.0 0.0 0.40 0.17 0.17 99 1017.2
20260902133621 68 147 0.0 0.0 0.59 0.15 0.15 99 1017.6
20260902133116 69 163 0.0 0.0 0.61 0.10 0.10 99 1017.3
20260902132611 69 178 0.0 0.0 0.19 0.03 0.03 99 1017.4
20260902132107 69 148 0.0 0.0 0.00 0.00 0.00 99 1017.3
20260902131603 69 152 0.0 0.0 0.00 0.00 0.00 99 1017.2
20260902131058 69 148 0.0 0.0 0.00 0.00 0.00 99 1017.2
20260902130554 69 148 0.0 0.0 0.00 0.00 0.00 99 1017.0
20260902130048 69 152 0.0 0.0 0.00 0.00 0.00 99 1016.7
20260902125545 69 150 0.0 0.0 0.00 0.00 0.00 99 1016.8
20260902125040 69 152 0.0 0.0 0.00 0.00 0.00 99 1016.9
20260902124537 69 150 0.0 0.0 0.00 0.00 0.00 99 1016.8
20260902124036 69 153 0.0 0.0 0.00 0.00 0.00 99 1016.6
20260902123532 69 148 0.0 0.0 0.00 0.00 0.00 99 1016.4
20260902123032 69 149 0.0 0.0 0.00 0.00 0.00 99 1016.4
20260902122532 69 151 0.0 0.0 0.00 0.00 0.00 99 1016.5
20260902122028 69 150 0.0 0.0 0.00 0.00 0.00 99 1016.5
20260902121528 68 148 0.0 0.0 0.00 0.00 0.00 99 1016.6
20260902121023 68 156 0.0 0.0 0.00 0.00 0.00 99 1016.5
20260902120519 68 144 0.0 0.0 0.00 0.00 0.00 99 1016.4
20260902120015 68 150 0.0 0.0 0.00 0.00 0.00 99 1016.2
20260902115510 68 147 0.0 0.0 0.00 0.00 0.00 99 1016.1
20260902115007 68 149 0.0 0.0 0.00 0.00 0.00 99 1015.8
20260902114502 68 147 0.0 0.0 0.00 0.00 0.00 99 1015.8
20260902113956 68 146 0.0 0.0 0.00 0.00 0.00 99 1016.0
20260902113452 68 148 0.0 0.0 0.00 0.00 0.00 99 1016.0
20260902112951 68 148 0.0 0.0 0.00 0.00 0.00 99 1016.0
20260902112448 68 147 0.0 0.0 0.00 0.00 0.00 99 1016.0
20260902111944 68 148 0.0 0.0 0.00 0.00 0.00 99 1015.8
20260902111440 67 148 0.0 0.0 0.00 0.00 0.00 99 1015.9
20260902110936 67 148 0.0 0.0 0.00 0.00 0.00 99 1015.9
20260902110431 67 148 0.0 0.0 0.00 0.00 0.00 99 1016.1
20260902105932 67 145 0.0 0.0 0.00 0.00 0.00 99 1015.9
20260902105427 67 148 0.0 0.0 0.00 0.00 0.00 99 1015.8
20260902104921 67 152 0.0 0.0 0.00 0.00 0.00 99 1015.8
20260902104417 67 148 0.0 0.0 0.00 0.00 0.00 99 1015.7
20260902103917 67 149 0.0 0.0 0.00 0.00 0.00 99 1015.6
20260902103412 67 148 0.0 0.0 0.00 0.00 0.00 99 1015.9
20260902102907 67 148 0.0 0.0 0.00 0.00 0.00 99 1016.0
20260902102405 67 148 0.0 0.0 0.00 0.00 0.00 99 1015.9
20260902101900 67 148 0.0 0.0 0.00 0.00 0.00 99 1016.3
20260902101355 67 148 0.0 0.0 0.00 0.00 0.00 99 1016.1
20260902100854 67 148 0.0 0.0 0.00 0.00 0.00 99 1016.4
20260902100348 67 147 0.0 0.0 0.00 0.00 0.00 99 1016.2
20260902095843 67 146 0.0 0.0 0.00 0.00 0.00 99 1016.1
20260902095342 67 148 0.0 0.0 0.00 0.00 0.00 99 1016.3
20260902094837 67 148 0.0 0.0 0.00 0.00 0.00 99 1016.6
20260902094333 67 147 0.0 0.0 0.00 0.00 0.00 99 1016.5
20260902093832 67 148 0.0 0.0 0.00 0.00 0.00 99 1016.3
20260902093328 67 149 0.0 0.0 0.00 0.00 0.00 99 1016.4
20260902092827 67 147 0.0 0.0 0.00 0.00 0.00 99 1016.5
20260902092323 67 149 0.0 0.0 0.00 0.00 0.00 99 1016.4
20260902091817 67 149 0.0 0.0 0.00 0.00 0.00 99 1016.2
20260902091312 67 147 0.0 0.0 0.00 0.00 0.00 99 1016.1
20260902090809 67 148 0.0 0.0 0.00 0.00 0.00 99 1016.3
20260902090308 67 149 0.0 0.0 0.00 0.00 0.00 99 1016.5
20260902085807 67 149 0.0 0.0 0.00 0.00 0.00 99 1016.4
20260902085306 67 147 0.0 0.0 0.00 0.00 0.00 99 1016.5
20260902084758 67 148 0.0 0.0 0.00 0.00 0.00 99 1016.7
20260902084255 68 147 0.0 0.0 0.00 0.00 0.00 99 1016.5
20260902083749 68 148 0.0 0.0 0.00 0.00 0.00 99 1016.5
20260902083244 68 150 0.0 0.0 0.00 0.00 0.00 99 1016.7
20260902082739 68 150 0.0 0.0 0.00 0.00 0.00 99 1016.8
20260902082236 68 153 0.0 0.0 0.00 0.00 0.00 99 1016.6
20260902081732 68 153 0.0 0.0 0.00 0.00 0.00 99 1016.8
20260902081227 68 152 0.0 0.0 0.00 0.00 0.00 99 1016.6
20260902080722 68 150 0.0 0.0 0.00 0.00 0.00 99 1016.4
20260902080219 68 150 0.0 0.0 0.00 0.00 0.00 99 1016.8
20260902075718 68 149 0.0 0.0 0.00 0.00 0.00 99 1016.5
20260902075215 68 150 0.0 0.0 0.00 0.00 0.00 99 1016.5
20260902074714 68 148 0.0 0.0 0.00 0.00 0.00 99 1016.5
20260902074209 68 149 0.0 0.0 0.00 0.00 0.00 99 1016.4
20260902073705 68 149 0.0 0.0 0.00 0.00 0.00 99 1016.5
20260902073201 68 152 0.0 0.0 0.00 0.00 0.00 99 1016.5
20260902072657 68 149 0.0 0.0 0.00 0.00 0.00 99 1016.5
20260902072152 68 149 0.0 0.0 0.00 0.00 0.00 99 1016.5
20260902071648 68 148 0.0 0.0 0.00 0.00 0.00 99 1016.6
20260902071144 68 149 0.0 0.0 0.00 0.00 0.00 99 1016.5
20260902070639 68 149 0.0 0.0 0.00 0.00 0.00 99 1016.4
20260902070139 68 150 0.0 0.0 0.00 0.00 0.00 99 1016.2
20260902065638 68 156 0.0 0.0 0.00 0.00 0.00 99 1016.3
20260902065134 68 156 0.0 0.0 0.00 0.00 0.00 99 1016.2
20260902064629 68 153 0.0 0.0 0.00 0.00 0.00 99 1016.2
20260902064125 68 160 0.0 0.0 0.00 0.00 0.00 98 1016.4
20260902063620 68 151 0.0 0.0 0.00 0.00 0.00 99 1016.3
20260902063114 68 162 0.0 0.0 0.00 0.00 0.00 99 1016.5
20260902062613 68 162 0.0 0.0 0.00 0.00 0.00 99 1016.7
20260902062109 68 161 0.0 0.0 0.00 0.00 0.00 99 1016.4
20260902061608 68 151 0.0 0.0 0.00 0.00 0.00 99 1016.7
20260902061104 68 157 0.0 0.0 0.00 0.00 0.00 99 1016.7
20260902060601 68 151 0.0 0.0 0.00 0.00 0.00 99 1016.5
20260902060057 68 153 0.0 0.0 0.00 0.00 0.00 98 1016.7
20260902055552 68 155 0.0 0.0 0.00 0.00 0.00 99 1016.5
20260902055048 69 151 0.0 0.0 0.00 0.00 0.00 99 1016.5
20260902054543 69 151 0.0 0.0 0.00 0.00 0.00 99 1016.6
20260902054038 69 158 0.0 0.0 0.00 0.00 0.00 99 1016.6
20260902053533 69 154 0.0 0.0 0.00 0.00 0.00 99 1016.7
20260902053033 69 161 0.0 0.0 0.00 0.00 0.00 99 1016.5
20260902052527 69 165 0.0 0.0 0.00 0.00 0.00 99 1016.6
20260902052023 69 161 0.0 0.0 0.00 0.00 0.00 99 1016.5
20260902051523 69 158 0.0 0.0 0.00 0.00 0.00 99 1016.5
20260902051021 69 158 0.0 0.0 0.00 0.00 0.00 99 1016.2
20260902050517 69 164 0.0 0.0 0.00 0.00 0.00 99 1016.2